STARLINK-1097

decayed
NORAD ID: 44916 Int'l Des: 2020-001 Owner: SPXS Country: US Constellation: starlink
LEOCIRCULAR
Group

About STARLINK-1097

Description loading...

Altitude History

Altitude vs Time

uPlot chart will show altitude changes over time

Two-Line Element Set

1 44916U 20001C 21347.61967235 .14773439 12246-4 20091-2 0 9994
2 44916 53.0279 26.7174 0004565 62.4092 78.6684 16.34493433107571
Epoch: Dec 13, 2021 • Age: 32929 hours

Current Status

Position data unavailable
Launch Date Jan 7, 2020
Age 5.6 years
Decay Date Dec 13, 2021
Type internet

Technical Details

Classification Payload
Mass 260.00 kg
Dry Mass 248.00 kg
Total Mass 260.00 kg
Length 0.20 m
Diameter 2.80 m
Span 9.00 m
Shape Box + pan
Manufacturer SPXS
Bus Type Starlink
Phase Status Unknown Transfer Status
Owner/State SPXS/US

Large Constellations

Loading constellations...